Location: Caltech
(34.1382°N, 118.1253°W)
Time: 03:23:03
(UTC-07:00)

PCSat - Visible Passes

Search period start: 01 October 2016 00:00
Search period end: 11 October 2016 00:00
Orbit: 786 x 794 km, 67.1° (Epoch: 30 September)

Date Brightness Start Highest point End Pass type
(mag) Time Alt. Az. Time Alt. Az. Time Alt. Az.
01 Oct 12.5 02:59:45 11° NE 02:59:45 11° NE 02:59:53 10° NE visible
01 Oct 10.9 04:40:30 27° NNW 04:40:30 27° NNW 04:43:32 10° N visible
02 Oct 11.4 04:10:55 22° N 04:10:55 22° N 04:12:55 10° NNE visible
03 Oct 12.0 03:41:15 15° NNE 03:41:15 15° NNE 03:42:13 10° NNE visible
04 Oct 11.9 04:52:16 10° NNW 04:52:16 10° NNW 04:52:28 10° NNW visible
05 Oct 12.1 04:22:31 10° N 04:22:31 10° N 04:22:32 10° N visible
